This demonstration page uses our WeatherBlox Daily Observations layout. Learn more.

Left ArrowRight Arrow

Hourly Observations for July 30, 2018

Temp ( °F °C ) Dew Point ( °F °C ) Humidity (%) Winds ( mph kmh ) Pressure ( in mb ) Visibility ( mi km ) Precip ( " mm )
12:13 am 00:13 Cloudy 78 25.6 72 22.2 82 82 SE 3 6 30.12 1020 10 16 0.00 0.00
12:31 am 00:31 Cloudy 78 25.6 72 22.2 82 82 SSE 5 7 30.12 1020 10 16 0.00 0.00
12:59 am 00:59 Mostly Cloudy 78 25.6 72 22.2 82 82 S 3 6 30.12 1020 10 16 0.00 0.00
1:59 am 01:59 Partly Cloudy 76 24.4 72 22.2 88 88 S 3 6 30.10 1019 10 16 0.00 0.00
2:59 am 02:59 Mostly Cloudy 76 24.4 72 22.2 88 88 SSE 3 6 30.09 1019 10 16 0.00 0.00
3:59 am 03:59 Mostly Cloudy 76 24.4 72 22.2 88 88 S 3 6 30.10 1019 10 16 0.00 0.00
4:59 am 04:59 Mostly Cloudy 76 24.4 72 22.2 88 88 S 3 6 30.09 1019 10 16 0.00 0.00
5:59 am 05:59 Mostly Cloudy 76 24.4 72 22.2 88 88 Calm 30.10 1019 10 16 0.00 0.00
6:27 am 06:27 Cloudy 76 24.4 72 22.2 88 88 SE 3 6 30.09 1019 10 16 0.00 0.00
6:59 am 06:59 Cloudy 76 24.4 73 22.8 91 91 Calm 30.09 1019 9 14 0.00 0.00
7:59 am 07:59 Cloudy with Thunderstorms 77 25 73 22.8 88 88 S 5 7 30.09 1019 10 16 0.00 0.00
8:30 am 08:30 Cloudy with Light Rain 77 25 74 23.3 90 90 SSE 3 6 30.09 1019 3 5 0.03 0.76
8:59 am 08:59 Cloudy with Rain 75 23.9 72 22.2 90 90 S 6 9 30.10 1019 3 5 0.13 3.30
9:01 am 09:01 Cloudy with Rain 74 23.3 72 22.2 94 94 VRB 7 11 30.12 1020 2 3 0.01 0.25
9:07 am 09:07 Cloudy with Heavy Rain 74 23.3 73 22.8 97 97 VRB 5 7 30.12 1020 1 2 0.08 2.03
9:17 am 09:17 Cloudy with Heavy Rain 74 23.3 72 22.2 94 94 S 8 13 30.12 1020 1 1 0.23 5.84
9:22 am 09:22 Cloudy with Heavy Rain 74 23.3 72 22.2 94 94 SSW 8 13 30.09 1019 0 0 0.43 10.92
9:31 am 09:31 Cloudy with Rain 74 23.3 72 22.2 94 94 WSW 5 7 30.09 1019 1 1 0.50 12.70
9:33 am 09:33 Cloudy with Light Rain 74 23.3 72 22.2 94 94 VRB 5 7 30.09 1019 1 2 0.51 12.95
9:35 am 09:35 Cloudy with Light Rain 74 23.3 72 22.2 94 94 S 5 7 30.09 1019 2 3 0.51 12.95
9:43 am 09:43 Cloudy with Light Rain 75 23.9 73 22.8 94 94 Calm 30.09 1019 5 8 0.51 12.95
9:59 am 09:59 Cloudy 75 23.9 73 22.8 94 94 S 3 6 30.09 1019 10 16 0.51 12.95
10:22 am 10:22 Cloudy with Light Rain 76 24.4 73 22.8 91 91 Calm 30.09 1019 8 13 0.02 0.51
10:38 am 10:38 Cloudy with Light Rain 77 25 74 23.3 90 90 Calm 30.09 1019 8 13 0.02 0.51
10:59 am 10:59 Cloudy with Light Rain 77 25 73 22.8 88 88 Calm 30.10 1019 6 10 0.03 0.76
11:56 am 11:56 Mostly Cloudy 81 27 73 23 79 79 Calm 30.09 1019 10 16 0.01 0.25
11:59 am 11:59 Cloudy 80 26.7 72 22.2 76 76 Calm 30.09 1019 10 16 0.01 0.25
12:12 pm 12:12 Cloudy 79 26.1 72 22.2 79 79 N 3 6 30.09 1019 10 16 0.00 0.00
12:23 pm 12:23 Cloudy 79 26.1 73 22.8 82 82 NNW 6 9 30.09 1019 10 16 0.00 0.00
12:39 pm 12:39 Cloudy 79 26.1 73 22.8 82 82 NNW 7 11 30.09 1019 10 16 0.00 0.00
12:59 pm 12:59 Cloudy 80 26.7 73 22.8 79 79 N 6 9 30.08 1019 10 16 0.00 0.00
1:59 pm 13:59 Cloudy 78 25.6 72 22.2 82 82 E 7 11 30.06 1018 10 16 0.00 0.00
2:23 pm 14:23 Cloudy with Light Rain 77 25 73 22.8 88 88 E 9 15 30.06 1018 3 4 0.03 0.76
2:32 pm 14:32 Cloudy 77 25 74 23.3 90 90 E 10 17 30.06 1018 10 16 0.03 0.76
2:59 pm 14:59 Mostly Cloudy 76 24.4 73 22.8 91 91 E 10 17 30.06 1018 10 16 0.03 0.76
3:03 pm 15:03 Cloudy with Thunderstorms 76 24.4 73 22.8 91 91 E 9 15 30.06 1018 10 16 0.00 0.00
3:38 pm 15:38 Cloudy with Thunderstorms 76 24.4 73 22.8 91 91 N 8 13 30.06 1018 0 0 0.07 1.78
3:44 pm 15:44 Cloudy with Thunderstorms 75 23.9 73 22.8 94 94 ENE 16 26 30.06 1018 0 0 0.32 8.13
3:59 pm 15:59 Cloudy with Thunderstorms 75 23.9 73 22.8 94 94 E 16 26 30.06 1018 0 0 1.00 25.40
4:16 pm 16:16 Cloudy with Thunderstorms 75 23.9 73 22.8 94 94 E 14 22 30.06 1018 6 10 0.11 2.79
4:41 pm 16:41 Cloudy with Rain 76 24.4 73 22.8 91 91 Calm 30.06 1018 3 4 0.14 3.56
4:43 pm 16:43 Cloudy with Light Rain 76 24.4 73 22.8 91 91 Calm 30.06 1018 3 5 0.14 3.56
4:59 pm 16:59 Cloudy 76 24.4 73 22.8 91 91 S 3 6 30.05 1018 10 16 0.14 3.56
5:59 pm 17:59 Cloudy with Light Rain 76 24.4 73 22.8 91 91 SE 5 7 30.04 1017 8 13 0.00 0.03
6:59 pm 18:59 Cloudy 76 24.4 73 22.8 91 91 Calm 30.04 1017 9 14 0.02 0.51
7:59 pm 19:59 Mostly Cloudy 76 24.4 74 23.3 94 94 Calm 30.05 1018 10 16 0.01 0.25
8:59 pm 20:59 Mostly Cloudy 76 24.4 74 23.3 94 94 Calm 30.05 1018 10 16 0.00 0.00
9:59 pm 21:59 Mostly Cloudy 75 23.9 73 22.8 94 94 Calm 30.07 1018 10 16 0.00 0.00
10:59 pm 22:59 Mostly Cloudy 75 23.9 73 22.8 94 94 Calm 30.06 1018 8 13 0.00 0.00
11:59 pm 23:59 Mostly Cloudy 75 23.9 73 22.8 94 94 Calm 30.06 1018 8 13 0.00 0.00

Powered by AerisWeather